Карточка аэропорта USHH

Внимание!
Информация на этой странице в стадии наполнения.
Если вы не увидели какой-то информации, или заметили неточность - пожалуйста сообщите нам!
Спасибо!
Команда RU-STAFF
Название аэропортаХанты-Мансийск
Название аэропорта (англ.)Khanty-Mansiysk
Превышение141 ft. (43 m.)
Координаты61°1.7039999999999', 69°5.1599999999999'
Высота перехода800m
Эшелон переходаFL050
Коды ответчика5150-5177
Зона ОрВДТюмень РПИ (USTV)
Данные METARUSHH 281900Z 08001MPS 2200 R06/P2000U FU SCT003 M24/M27 Q1044 R06/490149 TEMPO 1000 FU BKN003
Проноз погоды (TAF)USHH 281640Z 2818/2918 20003MPS 6000 SCT003 BKN016 TEMPO 2818/2908 VRB01MPS 1200 FU SCT002 BKN016 FM290800 19003G08MPS 9999 FEW004 BKN016 TEMPO 2908/2918 5000 -SN SCT002 BKN010
NOTAMshow/hide NOTAM
AWOS   TABLE

Информация о ВПП

ВПП Длина ВПП (м.) Покрытие Курс ВПП Частота ILS
062800Асфальтобетон58111.9
242800Асфальтобетон238110.1

Диспетчерские позиции

Позывной Наименование органа УВД Частота
USHH_R_APPХантым-Круг120.4
USHH_TWRХантым-Вышка118.1



Спутниковое изображение